Location: American University Park
(38.9515°N, 77.0900°W)
Time: 05:19:55
(UTC+00:00)

Daily predictions for brighter satellites

Satellite Brightness Start Highest point End
(mag) Time Altitude Azimuth Time Altitude Azimuth Time Altitude Azimuth
Cosmos 2082 4.2 00:59:53 10° NNW 01:05:34 66° WSW 01:11:13 10° S
SL-16 R/B 2.7 01:02:18 10° S 01:07:27 37° ESE 01:12:37 10° NE
Cosmos 2360 Rocket 3.7 01:05:55 10° SE 01:09:10 16° E 01:12:25 10° ENE
Cosmos 2322 Rocket 3.0 01:05:23 10° SSE 01:10:15 30° ESE 01:15:08 10° NE
BREEZE-M DEB (TANK) 2.3 01:10:07 10° SSW 01:12:22 39° SE 01:14:59 10° ENE
SL-24 DEB 4.3 01:09:37 10° SSE 01:14:17 66° E 01:19:01 10° N
Cosmos 1315 Rocket 4.2 01:10:55 10° NNE 01:14:19 24° ENE 01:17:41 10° SE
Cosmos 2278 4.5 01:10:07 10° SW 01:15:43 59° WNW 01:21:20 10° NNE
ATLAS 2A CENTAUR R/B 4.4 01:01:25 10° SW 01:16:55 22° S 01:23:06 10° SE
Ariane Rocket 3.1 01:12:07 10° SSE 01:17:09 69° ENE 01:22:15 10° N
OBJECT-B 1.9 01:16:00 10° S 01:19:04 43° W 01:22:09 10° NNW
Cosmos 1805 4.4 01:17:53 10° NNW 01:21:36 44° W 01:25:17 10° SSW
Aureole 2 Rocket 3.2 01:20:00 10° NW 01:22:09 30° WSW 01:24:16 10° S
USA 238 DEB 3.8 01:16:14 10° SW 01:22:42 79° WNW 01:29:33 10° NNE
USA 238 3.8 01:16:20 10° SW 01:22:48 80° WNW 01:29:39 10° NNE
Okean 1 Rocket 3.8 01:19:01 10° N 01:23:04 36° ENE 01:27:02 10° SE
Resurs 1-3 3.6 01:19:06 10° SSE 01:23:29 80° ENE 01:27:52 10° N
Cosmos 1934 Rocket 4.0 01:17:40 10° N 01:23:47 80° E 01:29:59 10° S
Cosmos 1726 2.9 01:23:29 10° NNE 01:26:50 34° ENE 01:29:47 12° SE
Cosmos 1980 Rocket 3.8 01:23:13 10° SW 01:28:27 39° WNW 01:33:42 10° N
Cosmos 220 Rocket 3.9 01:24:29 10° SSW 01:28:48 84° ESE 01:33:06 10° NNE
Cosmos 1378 Rocket 3.5 01:24:58 10° S 01:29:17 76° E 01:33:39 10° N
BREEZE-M DEB (TANK) 2.2 01:27:34 10° SSW 01:29:35 23° SE 01:31:46 10° ENE
Okean 2 3.3 01:27:57 10° S 01:32:00 68° E 01:36:04 10° NNE
Cosmos 1758 4.4 01:29:27 10° NNE 01:32:55 28° ENE 01:35:36 14° SE
Cosmos 1140 Rocket 3.7 01:27:43 10° NNW 01:32:58 72° WSW 01:38:09 10° S
CENTAUR R/B 2.8 01:28:08 10° SW 01:33:49 69° NW 01:40:38 10° NNE
Lacrosse 5 rocket 2.4 01:35:11 10° S 01:37:53 19° ESE 01:40:32 10° ENE
Cosmos 1707 2.8 01:39:04 10° S 01:42:51 58° E 01:46:41 10° NNE
Cosmos 292 Rocket 3.7 01:38:12 10° S 01:43:01 73° ESE 01:47:50 10° NNE
Meteor 2-10 4.0 01:41:06 10° N 01:46:11 86° W 01:51:21 10° S
Cosmos 1727 Rocket 4.2 01:40:31 10° SSE 01:46:37 54° E 01:52:43 10° NNE
NOSS 8 (A) 4.2 01:44:42 10° SSW 01:48:30 70° ESE 01:51:33 10° NE
Cosmos 1844 Rocket 4.3 01:44:25 10° N 01:48:43 21° NE 01:52:38 11° E
SPOT 5 4.4 01:50:49 15° ESE 01:53:51 24° ENE 01:57:50 10° NNE
Cosmos 1605 Rocket 4.1 01:48:38 10° N 01:55:05 89° E 02:01:22 10° S
Cosmos 2285 Rocket 4.3 01:50:12 10° SSW 01:56:38 76° WNW 02:03:05 10° NNE
FALCON 9 DEB 3.0 01:54:30 10° SW 01:57:55 79° SE 02:01:20 10° NE
Meteor 2-20 4.4 01:52:52 10° S 01:58:59 86° E 02:05:06 10° N
Cosmos 1452 Rocket 3.4 01:54:58 10° S 02:00:14 76° ESE 02:05:31 10° NNE
Resurs 01 Rocket 1.8 01:56:20 12° S 02:00:19 71° WSW 02:04:44 10° NNW
Cosmos 1953 3.6 01:57:16 10° NNE 02:00:41 26° ENE 02:02:13 20° ESE
Cosmos 1025 Rocket 4.3 02:00:33 20° ESE 02:01:58 24° E 02:05:28 10° NE
Cosmos 2263 Rocket 2.5 01:56:28 10° NNW 02:02:07 66° WSW 02:06:51 15° S
CARTOSAT-1 4.3 02:02:17 22° SE 02:04:29 37° ENE 02:08:28 10° N
Terra 3.5 02:02:47 15° E 02:05:02 20° ENE 02:08:29 10° NNE
IGS 5A 3.8 02:01:55 14° S 02:05:27 64° W 02:09:36 10° NNW
USA 245 4.0 02:03:19 22° SE 02:06:13 60° ENE 02:11:36 10° N
In-Cosmos 22 4.0 02:04:42 10° S 02:09:59 79° E 02:15:16 10° NNE
SPOT 1/Viking Rocket 3.5 02:06:53 20° SSE 02:10:30 75° ENE 02:15:38 10° N
Lacrosse 5 1.9 02:05:36 10° NW 02:10:40 76° NE 02:13:41 25° SE
Cosmos 1626 3.3 02:10:37 24° ESE 02:11:08 25° E 02:14:10 10° NE
Cosmos 1975 Rocket 3.1 02:09:39 20° S 02:12:30 61° E 02:16:49 10° NNE
Cosmos 1850 Rocket 4.4 02:08:54 10° N 02:14:03 49° ENE 02:16:49 25° SE
Cosmos 2333 Rocket 3.2 02:14:46 23° SE 02:16:30 27° ESE 02:21:16 10° NE
MetOp-B 4.2 02:13:57 18° S 02:18:01 78° WSW 02:23:23 10° NNW
Cosmos 1461 4.4 02:14:38 10° N 02:18:08 25° NE 02:19:59 18° E
Geosat 4.5 02:15:36 24° ESE 02:18:23 48° ENE 02:23:13 10° NNW
Spot 2 Rocket 3.5 02:18:25 26° SSE 02:21:15 66° ENE 02:26:17 10° N
KORONAS-FOTON 3.7 02:21:33 29° S 02:23:23 73° E 02:27:10 10° NNE
Cosmos 1459 Rocket 4.2 02:19:05 10° N 02:25:00 53° E 02:28:08 27° SE
Cosmos 1331 Rocket 4.1 02:22:28 21° S 02:25:47 56° ESE 02:30:56 10° NNE
ERS-1 Rocket 3.4 02:24:36 28° SE 02:26:56 49° ENE 02:31:47 10° N
Cosmos 1000 Rocket 4.4 02:24:18 20° S 02:28:35 67° E 02:34:40 10° NNE
JB-3 4.4 02:26:12 10° N 02:30:11 81° WNW 02:32:43 22° SSW
Cosmos 2219 Rocket 3.0 02:29:35 28° SE 02:30:49 30° ESE 02:35:42 10° NE
ATLAS CENTAUR R/B 3.7 02:29:40 10° N 02:32:26 16° NE 02:34:48 12° E
Cosmos 1844 4.5 02:28:15 10° N 02:33:26 38° ENE 02:35:57 25° ESE
ARIANE 5 R/B 2.5 02:36:13 36° SSE 02:38:01 85° E 02:42:31 10° NNW
Cosmos 2061 Rocket 4.5 02:35:46 10° N 02:41:57 46° ENE 02:44:37 31° SE
Meteor 2-11 Rocket 4.5 02:36:48 10° N 02:42:53 66° E 02:45:42 33° SSE
Cosmos 1674 3.1 02:41:22 27° SSW 02:43:11 58° W 02:46:52 10° N
ATLAS 3B R/B 2.6 02:39:16 17° S 02:44:11 55° ESE 02:50:40 10° NE
Aureole 1 Rocket 4.3 02:38:11 10° NNW 02:44:11 64° ENE 02:47:54 31° SE
Cosmos 1741 Rocket 3.9 02:41:03 10° NNW 02:46:20 89° WSW 02:48:30 37° SSE
Cosmos 2123 Rocket 4.1 02:48:00 32° SSE 02:50:57 62° E 02:57:10 10° NNE
SL-16 R/B 4.1 02:46:38 10° WSW 02:51:33 30° WNW 02:56:32 10° N
Cosmos 2360 Rocket 2.5 02:46:55 10° SSW 02:52:31 65° WNW 02:58:09 10° NNE
Cosmos 2322 Rocket 3.7 02:48:54 10° SW 02:54:07 37° WNW 02:59:24 10° N
Cosmos 1300 3.8 02:52:07 10° NNE 02:55:23 30° ENE 02:55:23 30° ENE
H-2A R/B 3.4 02:54:23 10° NNE 02:58:26 61° ESE 02:58:45 59° SE
Cosmos 1544 Rocket 3.5 02:54:29 10° N 02:58:58 80° E 02:59:55 55° SSE
Cosmos 1455 Rocket 3.7 02:59:33 10° NNW 03:03:53 52° W 03:05:24 35° SSW
Meteor 1-16 Rocket 4.5 02:59:45 10° NNW 03:05:07 60° W 03:07:26 32° SSW
Cosmos 2100 Rocket 4.3 02:59:21 10° NNW 03:05:40 66° W 03:08:59 29° SSW
COSMOS 2428 2.9 03:06:54 44° SE 03:08:05 52° ESE 03:13:37 10° NNE
USA 215 3.1 03:02:27 10° NE 03:09:00 71° SE 03:15:30 10° SW
Cosmos 1340 2.5 03:10:39 81° WSW 03:10:46 83° W 03:14:33 10° N
Cosmos 2322 3.6 03:08:15 34° SSW 03:10:47 81° ESE 03:16:28 10° NNE
BREEZE-M DEB (TANK) 3.7 03:09:40 10° NW 03:11:14 29° NNW 03:11:14 29° NNW
Cosmos 1908 4.1 03:10:31 10° NNW 03:14:10 41° W 03:14:50 37° WSW
Lacrosse 5 rocket 2.5 03:13:16 10° WSW 03:16:44 38° NW 03:20:07 10° NNE
Cosmos 405 3.5 03:14:12 10° N 03:17:02 53° NNE 03:17:02 53° NNE
SL-08 R/B 4.4 03:14:31 10° N 03:20:55 85° E 03:23:01 45° S
Cosmos 2278 Rocket 4.0 03:17:23 10° N 03:21:34 21° NE 03:23:56 16° E
Cosmos 1536 Rocket 3.7 03:26:46 57° SW 03:27:30 69° W 03:31:57 10° N
Cosmos 2016 Rocket 4.0 03:21:45 10° NNW 03:27:49 72° W 03:29:57 42° SSW
SPOT 5 4.0 03:30:02 31° SW 03:31:41 39° W 03:36:23 10° NNW
Cosmos 1992 Rocket 4.4 03:32:57 44° E 03:32:57 44° E 03:37:41 10° NNE
Cosmos 968 Rocket 3.9 03:27:53 10° N 03:32:49 46° ENE 03:33:30 43° E
Cosmos 1844 Rocket 3.0 03:27:25 10° NNW 03:32:58 56° WSW 03:34:17 45° SSW
Meteor 2-5 Rocket 3.7 03:32:04 48° SSW 03:33:41 80° W 03:39:17 10° N
Cosmos 1900 4.1 03:30:14 10° NNW 03:35:09 88° ENE 03:35:33 76° SE
Cosmos 1953 4.3 03:33:50 10° NW 03:36:52 20° W 03:37:53 19° WSW
Cosmos 1725 Rocket 4.1 03:33:17 10° NNW 03:39:24 68° W 03:41:21 44° SSW
SL-14 R/B 4.5 03:39:12 33° WSW 03:39:53 36° WNW 03:43:39 10° N
GEOS 3 Rocket 4.4 03:39:18 35° E 03:40:59 46° NE 03:46:05 10° NNW
Terra 2.6 03:41:40 37° WSW 03:42:28 40° W 03:46:57 10° NNW
Cosmos 1626 4.5 03:45:05 15° W 03:46:18 17° WNW 03:48:48 10° NNW
Cosmos 2228 3.3 03:47:52 10° N 03:51:51 61° NE 03:51:51 61° NE
Lacrosse 5 3.9 03:50:04 10° W 03:52:53 16° WSW 03:52:53 16° WSW
Cosmos 1980 4.0 03:56:11 49° E 03:56:11 49° E 04:01:24 10° NE
Cosmos 1461 4.4 03:53:35 10° NW 03:56:19 26° W 03:56:19 26° W
Cosmos 2333 Rocket 3.3 03:56:42 18° WSW 04:00:32 40° WNW 04:05:57 10° N
BREEZE-M DEB (TANK) 3.4 03:49:37 10° WSW 04:02:42 81° NW 04:06:18 10° NE
DNEPR-1 R/B 3.8 03:59:50 10° NW 04:03:30 65° NW 04:03:30 65° NW
ATLAS CENTAUR R/B 2.0 04:07:17 10° NW 04:10:56 54° WNW 04:10:56 54° WNW
SL-8 R/B 4.0 04:09:42 10° WNW 04:13:41 60° WNW 04:13:41 60° WNW
Cosmos 2219 Rocket 3.5 04:11:14 19° WSW 04:14:37 36° WNW 04:19:51 10° N
Cosmos 2058 Rocket 3.9 04:13:45 10° N 04:17:22 42° NE 04:17:22 42° NE
Cosmos 1503 Rocket 4.4 04:14:41 10° N 04:19:58 54° ENE 04:20:18 53° E
Cosmos 389 Rocket 4.3 04:16:46 10° NNW 04:18:37 29° NNW 04:18:37 29° NNW
Meteor 2-10 Rocket 3.7 04:17:23 10° NNW 04:22:19 57° W 04:22:19 57° W
Cosmos 1455 3.5 04:19:35 10° N 04:22:07 39° N 04:22:07 39° N
SL-16 R/B 3.6 04:25:54 25° E 04:25:54 25° E 04:29:37 10° NE
ATLAS CENTAUR R/B 2.8 04:26:30 66° ESE 04:26:30 66° ESE 04:36:28 10° NE
Cosmos 1726 Rocket 4.0 04:23:08 10° N 04:26:54 62° NNW 04:26:54 62° NNW
Spot 4 4.0 04:28:51 68° WNW 04:28:51 68° WNW 04:33:16 10° NNW
Cosmos 2237 Rocket 2.0 04:29:30 84° S 04:29:42 89° ESE 04:35:22 10° NNE
Cosmos 1867 3.5 04:29:15 10° NNW 04:34:46 86° ENE 04:34:48 86° ENE
ATLAS 3B R/B 4.2 04:29:30 10° WSW 04:35:11 30° NW 04:41:02 10° NNE
Thor Agena Rocket 4.3 04:33:47 10° NNE 04:38:12 42° E 04:38:12 42° E
Cosmos 1892 Rocket 4.3 04:40:55 49° NW 04:40:55 49° NW 04:44:40 10° N
ALOS 2 3.1 04:41:22 59° N 04:41:22 59° N 04:44:57 10° NNW
Tsikada Rocket 4.3 04:43:11 49° ESE 04:43:38 50° E 04:49:33 10° NNE
Meteor 1-21 Rocket 4.1 04:46:49 81° WSW 04:47:00 83° W 04:52:42 10° N
SJ 16-02 3.6 04:44:30 10° NNE 04:47:18 16° ENE 04:47:52 16° ENE
COBE Rocket 4.2 04:50:14 60° WNW 04:50:14 60° WNW 04:54:51 10° NNW
SL-4 R/B 3.7 04:52:00 28° NNE 04:52:00 28° NNE 04:54:01 10° NE
Cosmos 1891 Rocket 4.5 04:47:57 10° NNW 04:54:02 67° W 04:54:39 63° SW
Cosmos 2278 Rocket 2.4 05:00:30 10° NNW 05:05:45 57° W 05:05:45 57° W
Cosmos 1777 Rocket 4.2 05:05:41 10° NNW 05:10:56 62° ENE 05:11:01 62° ENE
Cosmos 1626 Rocket 4.2 05:11:52 55° NNW 05:11:52 55° NNW 05:15:26 10° N
PSLV R/B 4.4 05:11:04 10° NNE 05:14:21 48° NE 05:14:21 48° NE
Cosmos 1354 Rocket 4.4 05:10:47 10° NNW 05:15:27 53° W 05:15:27 53° W
Cosmos 1602 Rocket 4.1 05:18:27 57° N 05:18:27 57° N 05:22:02 10° N
USA 267 3.1 05:21:42 59° SE 05:23:04 85° SW 05:29:39 10° NW
Cosmos 1758 Rocket 4.3 05:25:43 49° NE 05:25:43 49° NE 05:29:11 10° NNE
NOSS 2-3 (C) 4.5 05:37:47 42° NE 05:37:47 42° NE 05:40:58 10° NE
Aureole 3 4.3 05:34:58 10° N 05:37:46 49° NNE 05:37:46 49° NNE
SL-24 R/B 4.5 05:40:29 79° E 05:40:32 79° ENE 05:46:13 10° N
Cosmos 1607 4.2 05:38:20 10° NW 05:44:13 51° WSW 05:44:13 51° WSW
Cosmos 1634 Rocket 3.9 05:38:34 10° N 05:44:55 87° E 05:45:48 68° SSE
Cosmos 2279 Rocket 4.4 05:40:14 10° N 05:46:21 55° E 05:47:46 46° ESE
Cosmos-2242 3.5 05:44:40 10° N 05:48:21 59° NNE 05:48:21 59° NNE
Cosmos 1943 Rocket 2.5 05:43:47 10° NNW 05:49:13 58° ENE 05:50:14 50° ESE
Cosmos 1825 4.0 05:52:57 25° ENE 05:52:57 25° ENE 05:55:16 10° NNE
Resurs 1-4 Rocket 3.3 05:55:59 10° NE 06:00:40 31° E 06:01:20 30° ESE
Exosat Rocket 4.2 06:01:45 55° SSE 06:03:03 68° ESE 06:08:41 10° NNE
SL-16 R/B 3.0 06:07:45 37° W 06:08:51 41° WNW 06:14:12 10° N
USA 229 DEB 3.4 06:08:35 62° SW 06:09:47 89° NW 06:16:32 10° NNE
USA 229 3.4 06:08:42 63° SSW 06:09:52 90° WSW 06:16:39 10° NNE
CZ-2D R/B 3.0 06:05:07 10° NNE 06:09:54 36° E 06:10:33 35° ESE
MOZ.5/SAFIR/RUBIN 5/SL-8 4.2 06:13:18 53° E 06:13:49 57° ENE 06:18:28 10° N
Cosmos 468 Rocket 3.8 06:16:01 81° SSE 06:16:12 84° ESE 06:21:25 10° NNE
ADEOS II 3.9 06:14:03 10° NE 06:17:51 20° E 06:19:32 17° ESE
Cosmos 2221 3.8 06:14:25 10° NNE 06:18:17 31° ENE 06:18:55 30° E
Nadezhda 4 Rocket 4.3 06:17:10 45° SE 06:18:44 57° E 06:24:42 10° NNE
Cosmos 1408 3.9 06:20:25 37° NNW 06:20:25 37° NNW 06:22:52 10° N
X-37B 2.9 06:21:11 24° NE 06:21:11 24° NE 06:22:48 10° NE
NOSS 3-1 (C) 3.9 06:18:54 37° W 06:20:18 45° NW 06:26:08 10° NNE
Cosmos 2098 Rocket 4.2 06:20:29 42° SE 06:21:51 50° E 06:26:45 10° NNE
Cosmos 1825 Rocket 4.4 06:24:06 41° WNW 06:24:06 41° WNW 06:27:55 10° N
BREEZE-M DEB (TANK) 4.4 06:20:56 40° WSW 06:23:53 86° NNW 06:51:49 10° ENE
BREEZE M DEB (TANK) 4.5 06:22:37 37° WSW 06:25:38 89° NNW 07:17:05 10° ENE
BREEZE M DEB (TANK) 4.5 06:22:37 37° WSW 06:25:39 89° NNW 07:17:05 10° ENE
BREEZE M DEB (TANK) 4.5 06:22:36 37° WSW 06:25:39 89° NNW 07:17:05 10° ENE
BREEZE M DEB (TANK) 4.5 06:22:37 37° WSW 06:25:39 89° NNW 07:17:04 10° ENE
SJ 16-02 2.5 06:21:56 10° NNW 06:24:50 33° WNW 06:24:50 33° WNW
Cosmos 2369 Rocket 2.5 06:23:19 10° NNW 06:29:01 64° ENE 06:31:21 35° SE
NOSS 3-1 (A) 3.2 06:28:32 56° WSW 06:29:29 68° NW 06:35:31 10° NNE
SL-16 R/B 3.1 06:26:24 26° SE 06:29:49 53° ENE 06:35:48 10° N
Cosmos 1869 4.2 06:26:40 10° NNW 06:29:42 42° NW 06:29:42 42° NW
Meteor 2-13 Rocket 4.5 06:30:03 55° SW 06:31:14 67° W 06:37:23 10° N
Cosmos 1606 4.4 06:31:57 10° NNE 06:35:16 27° ENE 06:35:59 25° E
Cosmos 1763 Rocket 3.4 06:35:28 62° W 06:35:55 65° WNW 06:41:01 10° NNE
Cosmos 1437 Rocket 3.2 06:34:02 10° N 06:37:37 57° ENE 06:37:37 57° ENE
Cosmos 1242 Rocket 4.0 06:37:18 10° NNE 06:40:31 30° ENE 06:40:52 30° E
Cosmos 2058 2.9 06:40:52 74° N 06:40:52 74° N 06:44:38 10° N
CZ-4 R/B 4.4 06:41:24 10° N 06:45:46 41° WNW 06:46:04 40° W
Cosmos 1953 Rocket 4.5 06:46:59 35° WNW 06:46:59 35° WNW 06:50:48 10° N
ATLAS 5 CENTAUR R/B 2.7 06:48:01 27° ESE 06:48:01 27° ESE 06:51:21 10° NE
DELTA 2 R/B (1) 3.5 06:48:29 61° SSW 06:49:06 66° SSE 06:54:36 10° E
Aureole 3 Rocket 4.0 06:50:22 10° N 06:54:10 46° E 06:56:17 28° SE
ADEOS Rocket 4.1 06:48:29 10° SE 06:55:37 50° ENE 07:02:10 10° N
Cosmos 1092 Rocket 4.1 06:54:17 37° SSE 06:56:43 68° E 07:02:49 10° NNE
Helios 1A 4.1 06:59:24 30° WNW 06:59:24 30° WNW 07:02:20 10° NNW
USA 307 3.5 06:58:46 44° SE 06:58:46 44° SE 07:02:40 10° ENE
Cosmos 1633 2.8 07:03:06 59° E 07:03:06 59° E 07:06:28 10° NNE
Landsat 4 4.4 07:01:56 10° NNE 07:05:33 43° E 07:06:02 40° ESE
Helios 1B rocket 2.2 07:01:45 10° N 07:05:50 79° WNW 07:06:08 73° SW
Cosmos 1842 Rocket 3.4 07:05:48 10° NNW 07:10:06 65° W 07:10:27 62° SW
IRS-1D 4.2 07:05:14 10° NNE 07:10:10 46° E 07:12:21 29° SSE
USA 308 2.9 07:13:55 58° SSE 07:14:18 62° SE 07:18:30 10° NE
NOSS 2-2 (D) 2.9 07:17:58 69° ESE 07:17:59 69° ESE 07:21:28 10° NE
Cosmos 841 Rocket 3.7 07:19:57 41° WSW 07:21:24 54° WNW 07:26:27 10° N
UNK 3.8 07:21:01 49° SW 07:21:50 58° W 07:26:23 10° NNW
Cosmos 2195 Rocket 4.5 07:21:03 35° SSW 07:23:55 78° W 07:30:15 10° N
Cosmos 540 Rocket 4.1 07:22:33 35° WSW 07:23:58 43° WNW 07:28:51 10° N
Meteor 2-19 Rocket 4.4 07:21:38 36° SSW 07:24:14 73° W 07:30:22 10° N
Cosmos 921 Rocket 3.1 07:24:19 49° WSW 07:25:01 57° WNW 07:29:10 10° N
Cosmos 1943 3.9 07:23:13 30° WSW 07:25:17 40° WNW 07:30:36 10° N
Cosmos 1898 Rocket 3.9 07:21:40 10° NNW 07:26:31 40° WSW 07:27:17 38° WSW
Cosmos 1825 4.3 07:27:43 15° WNW 07:27:43 15° WNW 07:29:48 10° NW
MINOTAUR 4 R/B 3.9 07:28:56 61° S 07:29:29 87° WSW 07:33:02 10° NNW
Lacrosse 4 Rocket 3.3 07:26:20 10° N 07:29:56 29° ENE 07:33:29 10° ESE
Cosmos 1937 Rocket 3.7 07:26:03 10° NNW 07:31:13 53° WSW 07:33:00 36° SSW
Cosmos 1943 Rocket 3.8 07:28:56 10° WNW 07:31:42 17° W 07:31:42 17° W
SL-19 R/B 4.3 07:28:31 10° N 07:33:41 61° WNW 07:35:55 34° SW
USA 305 2.8 07:32:36 47° WSW 07:33:45 81° NW 07:38:01 10° NE
NPP 4.2 07:30:20 10° N 07:35:25 44° WNW 07:37:30 30° WSW
Resurs 1-4 Rocket 3.2 07:35:47 10° N 07:40:24 31° WNW 07:42:25 24° WSW
Cosmos 1933 3.7 07:37:58 10° N 07:42:02 64° E 07:44:44 20° SSE
Cosmos 1076 Rocket 4.3 07:41:45 32° WSW 07:42:34 35° WNW 07:46:29 10° N
Cosmos 1814 Rocket 4.4 07:43:19 31° SW 07:45:28 50° WNW 07:50:30 10° N
Cosmos 2151 3.1 07:45:23 39° SW 07:46:43 59° W 07:50:53 10° N
Cosmos 1570 Rocket 4.4 07:45:18 30° WSW 07:47:30 48° WNW 07:52:34 10° N
CZ-2D R/B 3.4 07:45:29 10° NNW 07:49:45 26° WNW 07:51:52 20° WSW
Cosmos 2221 4.1 07:52:36 10° NW 07:55:33 18° W 07:55:44 18° W
USA 306 3.3 07:53:56 27° WSW 07:55:57 54° NW 08:00:08 10° NE
Cosmos 1553 Rocket 4.1 07:50:08 10° N 07:56:28 80° E 08:02:39 10° S
Meteor 1-29 3.9 07:53:27 10° N 07:56:30 31° WNW 07:57:07 29° W
X-37B 2.8 07:54:12 10° WNW 07:56:56 26° N 07:59:41 10° ENE
IRIDIUM 114 4.3 07:51:57 10° N 07:57:12 86° E 08:01:36 15° S
NOSS 2-2 (E) 4.3 07:56:15 23° W 07:57:28 29° NW 08:00:42 10° NNE
ERBS 3.7 07:56:45 22° SSE 07:57:44 27° SE 08:00:31 10° ENE
ADEOS II 2.5 07:52:42 10° N 07:57:44 47° WNW 08:00:27 25° SW
CZ-2C R/B 4.5 07:58:03 10° NE 08:01:57 23° E 08:05:43 10° SE
Cosmos 1125 Rocket 4.3 07:59:23 10° N 08:04:32 54° ENE 08:09:41 10° SE
DELTA 2 DEB (DPAF) 4.2 08:03:00 22° S 08:05:42 55° W 08:10:05 10° NNW
IRIDIUM 103 4.3 08:01:08 10° N 08:06:22 78° W 08:10:44 15° S
SeaSat 1 2.4 08:02:07 10° NNE 08:07:04 77° WNW 08:10:13 22° SW
ARIANE 5 R/B 2.9 08:04:18 10° NNE 08:09:14 59° ESE 08:13:53 12° S
NOSS 2-2 (C) 4.4 08:08:55 20° W 08:10:28 28° NW 08:13:38 10° NNE
Cosmos 1606 4.4 08:08:10 10° NW 08:10:41 17° W 08:10:56 17° W
SL-08 R/B 4.3 08:07:39 10° SE 08:12:04 47° ENE 08:16:35 10° N
Cosmos 2369 Rocket 3.7 08:08:58 10° WNW 08:12:24 16° W 08:13:05 16° WSW
SL-16 R/B 3.7 08:11:30 19° WSW 08:13:40 23° W 08:18:27 10° NW
Cosmos 1862 4.4 08:10:26 10° SSE 08:14:14 43° E 08:18:05 10° NNE
Cosmos 1328 Rocket 4.2 08:10:06 10° N 08:14:24 57° E 08:18:41 10° SSE
USA 290 4.1 08:15:00 17° W 08:15:55 19° WNW 08:18:17 10° NNW
IDEFIX/ARIANE 42P 2.7 08:12:00 10° N 08:17:09 60° WNW 08:20:56 18° SSW
Meteor 2-21 Rocket 4.5 08:13:50 12° S 08:19:38 89° E 08:25:50 10° N
Meteor 1-28 Rocket 3.9 08:18:35 23° SW 08:20:14 33° W 08:23:42 10° NNW
USA 281 3.2 08:14:13 10° SSE 08:20:47 75° WSW 08:27:23 10° NNW
Meteor 2-14 Rocket 4.5 08:16:48 16° SSW 08:21:48 68° W 08:27:55 10° N
IRS-1C 4.1 08:17:19 10° NNE 08:22:41 81° WNW 08:27:23 13° SSW
CZ-4C R/B 2.7 08:19:33 13° S 08:23:29 44° ESE 08:28:36 10° NE
CZ-4B R/B 3.7 08:18:41 10° NNE 08:23:59 80° ESE 08:29:07 10° S
GPS 2-04 Rocket1 2.9 08:23:32 20° WSW 08:25:55 48° S 08:29:32 10° E
FALCON 9 DEB 4.3 08:25:46 10° NW 08:29:03 45° NE 08:32:18 10° ESE
ATLAS 5 CENTAUR R/B 3.0 08:29:31 12° W 08:32:20 24° NW 08:35:54 10° N
DELTA 2 R/B (1) 3.6 08:29:57 10° W 08:35:32 83° N 08:41:07 10° E
Cosmos 1766 Rocket 4.1 08:35:18 15° SSW 08:38:41 43° W 08:42:59 10° N
USA 307 4.4 08:34:57 10° W 08:38:41 29° NNW 08:42:26 10° NNE
Okean 3 Rocket 4.1 08:36:47 15° SSW 08:40:12 43° W 08:44:24 10° N
Cosmos 1833 Rocket 3.8 08:35:05 10° S 08:40:18 40° ESE 08:45:33 10° NE
Cosmos 2266 Rocket 4.0 08:34:57 10° SSW 08:41:06 74° W 08:47:11 10° N
ADEOS Rocket 4.2 08:35:06 11° SSW 08:41:09 31° W 08:47:12 10° NW
Spot 4 Rocket 4.2 08:36:40 10° NNE 08:41:49 73° ESE 08:46:55 10° S
Cosmos 1515 Rocket 4.1 08:37:45 10° N 08:42:09 64° E 08:46:33 10° SSE
Cosmos 1408 Rocket 3.6 08:39:34 10° S 08:44:00 80° W 08:48:29 10° N
Cosmos 1151 Rocket 3.4 08:42:38 10° NNW 08:46:41 43° W 08:50:43 10° SSW
Tianhe-1 3.1 08:48:38 10° SSW 08:50:53 18° SSE 08:53:10 10° E
PAYLOAD A 4.1 08:48:40 10° NNE 08:53:42 83° ESE 08:58:54 10° SSW
Cosmos 1655 Rocket 4.3 08:49:02 10° SSW 08:55:02 50° WNW 09:01:04 10° N
FENGYUN 3A 4.4 08:51:21 10° NNE 08:56:41 55° E 09:01:59 10° S
Cosmos 2082 Rocket 4.1 08:52:35 10° SSE 08:57:11 27° ESE 09:01:47 10° NE
Alouette 2 Rocket 4.1 08:56:03 10° NNW 08:59:18 32° W 09:03:07 10° SSW
Cosmos 1782 4.0 08:57:23 10° NW 09:00:38 24° W 09:03:53 10° SW
ASTEX 1 4.4 08:57:49 10° SSW 09:02:07 29° W 09:06:24 10° NNW
Cosmos 44 4.4 08:57:39 10° S 09:02:34 46° ESE 09:07:44 10° NE
ALOS 2.9 09:01:05 10° NNE 09:05:43 59° E 09:10:18 10° S
CZ-2C R/B 2.8 09:02:08 10° NNE 09:06:01 88° E 09:09:49 10° SSW
CENTAUR R/B 4.4 08:59:41 10° NNW 09:07:37 50° NE 09:16:13 10° ESE
Lacrosse 4 Rocket 2.6 09:05:19 10° WNW 09:08:24 21° WSW 09:11:26 10° SSW
COSMOS 2406 3.5 09:06:28 10° SSW 09:12:05 74° ESE 09:17:45 10° NNE
Chandra Rocket (1) 4.0 09:15:20 10° SW 09:19:51 18° S 09:22:28 10° SE
Milstar 3 Cent rocket 4.5 09:15:46 10° WSW 09:34:46 52° S 09:43:36 10° ESE
